[[{"header":{"parameterUnit":"m.s-1","parameterCategory":1,"la1":30.2992,"la2":30.254,"lo1":-89.0895,"lo2":-89.0443,"dy":0.0025,"dx":0.0025,"nx":19,"ny":19,"refTime":"2026-05-20T09:00:00:Z","depth":0,"parameterNumber":2,"parameterNumberName":"U-component_of_WINDS"},"data":[0,0,0,-3.2918,-3.292,-3.3006,-3.3006,-3.3117,-3.3118,0,0,0,0,0,0,0,0,0,0,0,-3.2893,-3.2893,-3.2918,-3.292,-3.3006,-3.3006,-3.3117,-3.3118,0,0,0,0,0,0,0,0,0,0,0,-3.2892,-3.2893,-3.2894,-3.292,-3.3006,-3.3006,-3.3117,-3.3051,0,0,0,0,0,0,0,0,0,0,-3.2968,-3.2944,-3.2893,-3.2894,-3.2921,-3.3006,-3.3006,-3.3048,-3.3055,-3.3078,0,-3.3099,0,-3.311,-3.3125,-3.3126,0,0,0,-3.292,-3.2938,-3.2962,-3.2894,-3.2922,-3.3006,-3.2967,-3.3052,-3.306,-3.3088,-3.31,-3.3104,-3.3112,-3.3126,-3.3127,-3.326,-3.326,0,0,-3.2915,-3.2908,-3.2956,-3.2967,-3.2954,-3.2964,-3.297,-3.3057,-3.307,-3.3101,-3.3107,-3.3114,-3.3127,-3.3128,-3.3259,-3.326,0,0,0,-3.2901,-3.2905,-3.2926,-3.2962,-3.2978,-3.2967,-3.2973,-3.3066,-3.3074,-3.3108,-3.3115,-3.3128,-3.3129,-3.3259,-3.326,-3.3284,0,0,0,-3.2898,-3.2897,-3.2924,-3.292,-3.2976,-3.3023,-3.298,-3.3068,-3.3078,-3.3115,-3.3128,-3.313,-3.3258,-3.3259,-3.3281,-3.3295,0,0,0,-3.2887,-3.2896,-3.2908,-3.292,-3.2957,-3.3022,-3.3034,-3.307,-3.3082,-3.3126,-3.313,-3.3257,-3.3259,-3.3279,-3.3292,-3.3328,0,0,0,-3.2872,-3.2928,-3.2908,-3.2974,-3.2956,-3.3037,-3.3034,-3.3094,-3.3135,-3.3128,-3.3258,-3.3259,-3.3279,-3.329,-3.3326,-3.3355,-3.3367,0,0,-3.2939,-3.2936,-3.2975,-3.296,-3.3042,-3.3024,-3.311,-3.3154,-3.3164,-3.3227,-3.3231,-3.3282,-3.3292,-3.3327,-3.3441,-3.345,0,0,0,-3.2994,-3.3021,-3.3045,-3.3083,-3.3119,-3.315,-3.3181,-3.3198,-3.3252,-3.3195,-3.3306,-3.3312,-3.3333,-3.3347,-3.3355,-3.3373,-3.3266,-3.3266,-3.3266,-3.3076,-3.3087,-3.3153,-3.3175,-3.3213,-3.3245,-3.3277,-3.3305,-3.3305,-3.3331,-3.3348,-3.3416,-3.3433,-3.3439,-3.3457,-3.3367,-3.3367,-3.3367,-3.3367,-3.3173,-3.3214,-3.3214,-3.3277,-3.3289,-3.3342,-3.3377,-3.3376,-3.3427,-3.3403,-3.3422,-3.3393,-3.3449,-3.3466,-3.3369,-3.3369,-3.3368,-3.3368,-3.3368,-3.3227,-3.3248,-3.3268,-3.3326,-3.337,-3.3391,-3.3441,-3.345,-3.3459,-3.3478,-3.3498,-3.3498,-3.3497,-3.3488,-3.3488,-3.3488,-3.3488,-3.3489,-3.3489,-3.3273,-3.3295,-3.3336,-3.338,-3.3406,-3.3443,-3.3478,-3.3505,-3.3536,-3.3539,-3.354,-3.3536,-3.3453,-3.3431,-3.3492,-3.3492,-3.3491,-3.3491,-3.3491,-3.3364,-3.3346,-3.3408,-3.3435,-3.3487,-3.353,-3.3543,-3.3597,-3.362,-3.3645,-3.3639,-3.3576,-3.3573,-3.3567,-3.3548,-3.3637,-3.3637,-3.3637,-3.3637,-3.3408,-3.3408,-3.3475,-3.3517,-3.356,-3.3578,-3.3649,-3.3678,-3.3704,-3.372,-3.3709,-3.3686,-3.368,-3.3681,-3.3672,-3.3655,-3.3768,-3.3768,-3.3768,-3.3464,-3.3469,-3.3526,-3.3553,-3.3595,-3.3632,-3.3698,-3.3747,-3.3774,-3.3774,-3.3732,-3.3727,-3.369,-3.3678,-3.3673,-3.3659,-3.3628,0,0]},{"header":{"parameterUnit":"m.s-1","parameterCategory":1,"la1":30.2992,"la2":30.254,"lo1":-89.0895,"lo2":-89.0443,"dy":0.0025,"dx":0.0025,"nx":19,"ny":19,"refTime":"2026-05-20T09:00:00:Z","depth":0,"parameterNumber":3,"parameterNumberName":"V-component_of_WINDS"},"data":[0,0,0,4.7503,4.7505,4.7566,4.7566,4.7651,4.7652,0,0,0,0,0,0,0,0,0,0,0,4.7492,4.7492,4.7503,4.7505,4.7566,4.7566,4.7651,4.7652,0,0,0,0,0,0,0,0,0,0,0,4.7491,4.7492,4.7493,4.7505,4.7566,4.7566,4.7651,4.7602,0,0,0,0,0,0,0,0,0,0,4.7541,4.7537,4.7492,4.7493,4.7505,4.7566,4.7566,4.7599,4.7605,4.7627,0,4.7651,0,4.7653,4.7658,4.7659,0,0,0,4.7499,4.7532,4.7543,4.7493,4.7506,4.7566,4.7537,4.7602,4.7608,4.7635,4.7652,4.7655,4.7654,4.7659,4.7659,4.7813,4.7813,0,0,4.7496,4.7505,4.7539,4.7548,4.7541,4.7535,4.7539,4.7606,4.7624,4.7652,4.7657,4.7656,4.7659,4.766,4.7812,4.7813,0,0,0,4.749,4.7503,4.7512,4.7545,4.7555,4.7537,4.7541,4.7621,4.7624,4.7657,4.7657,4.766,4.7661,4.7811,4.7812,4.787,0,0,0,4.7488,4.75,4.7511,4.7517,4.7554,4.7589,4.7555,4.7619,4.7626,4.7656,4.766,4.7662,4.7809,4.7811,4.7866,4.7895,0,0,0,4.7485,4.7499,4.7511,4.7518,4.7545,4.7588,4.7594,4.762,4.7626,4.7659,4.7662,4.7809,4.7811,4.7862,4.7889,4.7938,0,0,0,4.7485,4.756,4.7512,4.7595,4.7544,4.7624,4.7594,4.7652,4.7687,4.7661,4.781,4.7812,4.7861,4.7885,4.7934,4.798,4.8,0,0,4.7584,4.7572,4.762,4.7579,4.7671,4.7614,4.7713,4.7735,4.7728,4.7784,4.7788,4.7867,4.7888,4.7937,4.8112,4.8129,0,0,0,4.7655,4.769,4.7712,4.7747,4.7767,4.7786,4.7792,4.7801,4.7848,4.776,4.7898,4.791,4.7938,4.796,4.7973,4.7996,4.7823,4.7822,4.7822,4.7808,4.7798,4.7877,4.7874,4.7908,4.7915,4.7941,4.7953,4.7931,4.7964,4.798,4.8088,4.8113,4.8124,4.8148,4.8004,4.8004,4.8004,4.8004,4.7953,4.8,4.7971,4.8038,4.8026,4.8081,4.809,4.8073,4.8121,4.8074,4.8098,4.8048,4.8142,4.8162,4.8009,4.8008,4.8007,4.8007,4.8007,4.8051,4.8072,4.8082,4.8132,4.8171,4.8165,4.8214,4.8201,4.8188,4.8212,4.8228,4.8227,4.8223,4.8221,4.8221,4.8222,4.8222,4.8222,4.8223,4.8149,4.8159,4.8202,4.8231,4.8252,4.8278,4.8286,4.8305,4.8323,4.831,4.831,4.8284,4.8154,4.8121,4.8228,4.8227,4.8226,4.8226,4.8226,4.8297,4.8262,4.8329,4.8351,4.8383,4.8423,4.8407,4.8448,4.8462,4.8486,4.8456,4.8362,4.8347,4.8336,4.8309,4.8459,4.8459,4.8459,4.8459,4.838,4.8372,4.8438,4.8473,4.8506,4.8498,4.8573,4.858,4.8581,4.8589,4.8565,4.8528,4.8517,4.8509,4.8494,4.8468,4.8655,4.8656,4.8656,4.847,4.8465,4.8532,4.8535,4.856,4.8581,4.8651,4.8691,4.8684,4.8663,4.8594,4.8586,4.8526,4.8507,4.8483,4.846,4.8412,0,0]}]]